Total_Precipitation_Accumulation
1.21 1.09 1.01 1.04 1.00 0.96 0.96 0.98 0.92 0.85 0.83 0.81 0.80 0.77 0.73 0.62 0.54 0.53 0.49 0.49 0.46 0.51 0.73 0.94 1.13 1.38 1.62 1.81 1.98 1.96 1.69 1.54 1.42 1.29 1.29 1.40 1.46 1.46 1.47 1.56 1.69 1.66 1.53
1.32 1.21 1.08 1.04 1.02 0.98 0.98 0.94 0.89 0.82 0.76 0.69 0.64 0.64 0.72 0.70 0.63 0.59 0.52 0.51 0.50 0.50 0.62 0.82 1.06 1.30 1.58 1.88 2.13 2.31 2.08 1.90 1.74 1.55 1.37 1.38 1.48 1.52 1.51 1.57 1.68 1.84 1.85
1.47 1.42 1.28 1.13 1.01 0.97 0.99 1.02 0.97 0.92 0.83 0.73 0.65 0.60 0.60 0.62 0.62 0.59 0.54 0.51 0.53 0.52 0.57 0.73 0.93 1.15 1.44 1.80 2.14 2.39 2.51 2.29 2.10 1.93 1.69 1.48 1.48 1.59 1.66 1.74 1.79 1.90 1.99
1.61 1.57 1.49 1.37 1.23 1.11 1.04 1.03 0.98 0.92 0.87 0.80 0.74 0.67 0.62 0.59 0.55 0.54 0.52 0.51 0.54 0.54 0.56 0.65 0.78 1.02 1.26 1.51 1.87 2.21 2.59 2.58 2.52 2.37 2.22 1.90 1.66 1.66 1.77 1.87 2.00 2.06 2.06
1.78 1.70 1.60 1.56 1.54 1.41 1.24 1.11 1.05 0.95 0.86 0.80 0.79 0.76 0.71 0.65 0.62 0.60 0.54 0.49 0.49 0.51 0.54 0.58 0.66 0.83 1.04 1.28 1.60 1.95 2.33 2.67 2.78 2.77 2.71 2.50 2.13 1.84 1.85 1.97 2.04 2.17 2.27
1.95 1.90 1.77 1.67 1.69 1.63 1.51 1.34 1.20 1.09 0.96 0.87 0.87 0.86 0.82 0.76 0.69 0.63 0.59 0.55 0.52 0.51 0.54 0.57 0.58 0.65 0.81 1.01 1.31 1.69 2.09 2.53 2.91 3.00 2.98 2.99 2.85 2.42 2.18 2.18 2.18 2.29 2.45
2.15 2.17 2.01 1.90 1.84 1.74 1.56 1.47 1.43 1.34 1.19 1.06 1.05 1.07 0.98 0.86 0.82 0.71 0.62 0.56 0.54 0.51 0.51 0.57 0.60 0.61 0.69 0.87 1.03 1.30 1.75 2.21 2.74 3.28 3.31 3.23 3.31 3.12 2.75 2.58 2.52 2.57 2.75
2.20 2.40 2.31 2.13 2.01 1.90 1.79 1.62 1.54 1.53 1.45 1.26 1.15 1.20 1.24 1.18 0.99 0.80 0.68 0.58 0.55 0.54 0.54 0.54 0.59 0.61 0.63 0.72 0.82 1.04 1.35 1.82 2.32 3.04 3.72 3.80 3.84 3.92 3.53 3.11 2.94 2.94 3.04
1.90 2.05 2.17 2.07 2.08 2.03 1.96 1.83 1.67 1.61 1.63 1.50 1.26 1.32 1.42 1.28 1.03 0.87 0.76 0.67 0.59 0.57 0.55 0.54 0.56 0.60 0.63 0.71 0.76 0.85 1.04 1.40 1.88 2.49 3.33 4.08 4.32 4.51 4.43 3.79 3.45 3.37 3.35
1.78 1.86 1.96 2.01 1.90 1.83 1.80 1.79 1.75 1.62 1.65 1.68 1.50 1.28 1.18 1.13 1.19 1.08 0.87 0.79 0.75 0.69 0.62 0.57 0.55 0.60 0.64 0.71 0.82 0.87 0.93 1.09 1.48 2.01 2.74 3.65 4.45 4.86 5.15 4.75 4.08 3.82 3.74
1.77 1.85 1.87 1.93 1.97 1.86 1.71 1.65 1.69 1.70 1.66 1.63 1.56 1.41 1.22 1.02 0.99 1.14 1.01 0.87 0.88 0.84 0.78 0.70 0.66 0.67 0.69 0.76 0.81 0.90 1.03 1.11 1.44 1.75 2.20 2.87 3.94 4.83 5.49 5.60 4.99 4.31 3.97
1.72 1.81 1.86 1.83 1.83 1.89 1.86 1.71 1.63 1.68 1.64 1.59 1.55 1.48 1.40 1.29 1.10 1.07 1.03 0.84 0.82 0.80 0.83 0.87 0.86 0.83 0.83 0.84 0.94 1.14 1.14 1.23 1.48 1.61 1.73 2.08 2.86 3.91 4.85 5.42 5.26 4.62 4.20
1.65 1.68 1.77 1.80 1.75 1.74 1.79 1.79 1.71 1.67 1.65 1.63 1.57 1.47 1.38 1.29 1.19 1.21 1.24 1.06 0.87 0.77 0.79 0.84 0.88 0.93 0.97 0.96 1.07 1.20 1.19 1.34 1.43 1.52 1.54 1.68 2.10 2.89 3.82 4.73 5.16 4.85 4.36
1.53 1.51 1.56 1.63 1.62 1.57 1.61 1.70 1.68 1.61 1.63 1.65 1.61 1.56 1.48 1.33 1.26 1.33 1.42 1.49 1.32 0.95 0.80 0.81 0.81 0.88 1.02 1.07 1.18 1.33 1.25 1.36 1.43 1.52 1.58 1.59 1.74 2.05 2.73 3.76 5.02 5.44 4.79
1.49 1.52 1.52 1.52 1.46 1.43 1.43 1.47 1.52 1.47 1.50 1.54 1.57 1.60 1.61 1.48 1.38 1.34 1.38 1.57 1.87 1.64 1.06 0.80 0.82 0.87 0.95 1.06 1.26 1.15 1.08 1.17 1.25 1.33 1.45 1.52 1.61 1.73 2.00 2.60 3.56 4.89 5.52
1.45 1.50 1.52 1.51 1.46 1.37 1.38 1.40 1.36 1.30 1.36 1.39 1.44 1.53 1.58 1.52 1.43 1.37 1.41 1.43 1.55 1.75 1.45 0.87 0.79 0.83 0.96 1.01 1.14 1.05 1.07 1.25 1.25 1.30 1.37 1.44 1.53 1.60 1.74 2.01 2.53 3.37 4.55
1.37 1.35 1.38 1.43 1.43 1.38 1.36 1.42 1.39 1.31 1.32 1.33 1.35 1.39 1.41 1.44 1.46 1.38 1.38 1.39 1.36 1.44 1.45 0.93 0.76 0.80 0.98 1.07 1.06 1.01 1.04 1.09 1.12 1.28 1.32 1.36 1.44 1.53 1.72 1.91 2.20 2.62 3.27
1.35 1.35 1.33 1.35 1.36 1.37 1.38 1.41 1.38 1.31 1.30 1.29 1.30 1.28 1.28 1.32 1.40 1.35 1.31 1.27 1.22 1.18 1.24 1.08 0.83 0.81 0.88 0.96 1.07 1.16 1.14 1.11 1.06 1.19 1.24 1.33 1.47 1.53 1.64 1.84 2.09 2.37 2.70
1.28 1.31 1.34 1.34 1.37 1.40 1.40 1.34 1.36 1.31 1.26 1.26 1.27 1.27 1.23 1.29 1.36 1.31 1.30 1.24 1.15 1.08 1.08 1.10 0.93 0.84 0.88 0.92 1.09 1.26 1.26 1.27 1.20 1.23 1.26 1.33 1.44 1.54 1.63 1.76 1.99 2.21 2.37
1.28 1.23 1.22 1.28 1.39 1.55 1.60 1.55 1.56 1.44 1.32 1.26 1.21 1.18 1.20 1.31 1.35 1.37 1.41 1.31 1.24 1.25 1.24 1.27 1.14 1.01 1.02 1.03 1.21 1.45 1.55 1.51 1.44 1.28 1.33 1.38 1.49 1.61 1.65 1.66 1.73 1.84 1.97
1.25 1.17 1.15 1.21 1.32 1.70 2.10 2.10 1.99 1.72 1.42 1.26 1.17 1.14 1.20 1.35 1.41 1.58 1.71 1.59 1.56 1.66 1.62 1.60 1.48 1.38 1.30 1.34 1.41 1.45 1.63 1.65 1.63 1.46 1.35 1.29 1.33 1.35 1.45 1.56 1.63 1.70 1.79
1.34 1.23 1.16 1.16 1.22 1.53 2.23 2.40 2.05 1.59 1.38 1.26 1.20 1.14 1.15 1.28 1.32 1.45 1.64 1.73 1.79 1.91 1.99 1.95 1.85 1.71 1.45 1.36 1.40 1.54 1.64 1.82 1.89 1.56 1.47 1.43 1.37 1.46 1.41 1.43 1.65 1.68 1.74
1.45 1.43 1.27 1.16 1.14 1.33 2.02 2.19 1.92 1.50 1.32 1.25 1.18 1.16 1.16 1.21 1.28 1.26 1.39 1.46 1.50 1.66 1.89 2.00 2.05 1.66 1.43 1.37 1.60 1.80 1.76 1.83 1.80 1.69 1.80 1.76 1.48 1.50 1.44 1.55 1.77 1.69 1.68
1.38 1.44 1.38 1.26 1.17 1.25 1.81 2.01 1.81 1.47 1.33 1.24 1.15 1.13 1.14 1.16 1.27 1.47 1.44 1.40 1.31 1.33 1.53 1.74 2.00 1.82 1.63 1.65 1.99 2.31 2.38 2.25 1.84 1.64 1.81 2.03 1.60 1.49 1.53 1.63 1.80 1.72 1.63
1.29 1.30 1.31 1.30 1.24 1.22 1.59 1.89 1.72 1.41 1.35 1.26 1.14 1.11 1.14 1.14 1.41 1.69 1.59 1.44 1.28 1.19 1.29 1.62 1.94 2.08 2.12 2.23 2.46 2.76 2.91 2.73 2.27 1.74 1.71 1.98 1.79 1.60 1.75 1.94 1.99 1.88 1.64
1.23 1.23 1.24 1.25 1.19 1.13 1.40 1.70 1.70 1.39 1.31 1.25 1.18 1.13 1.27 1.36 1.56 1.70 1.55 1.51 1.60 1.38 1.22 1.26 1.36 1.47 1.55 1.71 2.10 2.38 2.69 2.78 2.42 2.19 1.84 1.93 2.04 2.04 2.31 2.17 2.02 1.83 1.64